TimePST,TemperatureF,Dew PointF,Humidity,Sea Level PressureIn,VisibilityMPH,Wind Direction,Wind SpeedMPH,Gust SpeedMPH,PrecipitationIn,Events,Conditions,WindDirDegrees,DateUTC
12:56 AM,48.0,45.0,89,30.02,10.0,Calm,Calm,-,N/A,,Overcast,0,2012-12-05 08:56:00
1:41 AM,48.2,44.6,87,30.04,10.0,North,-9999.0,-,0.00,,Overcast,0,2012-12-05 09:41:00
1:56 AM,48.0,44.1,86,30.05,10.0,Calm,Calm,-,0.00,,Overcast,0,2012-12-05 09:56:00
2:56 AM,44.1,43.0,96,30.09,10.0,ESE,4.6,-,N/A,,Overcast,120,2012-12-05 10:56:00
3:56 AM,43.0,42.1,97,30.11,10.0,SSW,3.5,-,N/A,,Overcast,210,2012-12-05 11:56:00
4:56 AM,44.1,41.0,89,30.13,10.0,WSW,4.6,-,0.00,,Scattered Clouds,240,2012-12-05 12:56:00
6:56 AM,39.9,39.0,97,30.16,10.0,South,3.5,-,N/A,,Clear,170,2012-12-05 14:56:00
7:56 AM,41.0,39.9,96,30.18,10.0,Calm,Calm,-,N/A,,Scattered Clouds,0,2012-12-05 15:56:00
8:56 AM,42.1,41.0,96,30.20,10.0,SSE,3.5,-,N/A,,Clear,160,2012-12-05 16:56:00
9:56 AM,46.9,43.0,86,30.22,10.0,SE,3.5,-,N/A,,Clear,130,2012-12-05 17:56:00
10:56 AM,48.9,44.1,83,30.23,10.0,SSE,4.6,-,N/A,,Scattered Clouds,160,2012-12-05 18:56:00
11:56 AM,51.1,41.0,68,30.23,10.0,SSE,8.1,-,N/A,,Scattered Clouds,150,2012-12-05 19:56:00
12:56 PM,51.1,36.0,56,30.22,10.0,Variable,3.5,-,N/A,,Scattered Clouds,0,2012-12-05 20:56:00
1:56 PM,51.1,39.0,63,30.21,10.0,SE,6.9,-,N/A,,Scattered Clouds,130,2012-12-05 21:56:00
2:56 PM,50.0,37.9,63,30.21,10.0,South,5.8,-,N/A,,Mostly Cloudy,180,2012-12-05 22:56:00
3:56 PM,48.9,39.0,69,30.22,10.0,SSW,3.5,-,N/A,,Mostly Cloudy,210,2012-12-05 23:56:00
4:56 PM,46.9,39.9,77,30.22,10.0,South,3.5,-,N/A,,Mostly Cloudy,190,2012-12-06 00:56:00
5:56 PM,46.0,41.0,83,30.22,10.0,SSE,3.5,-,N/A,,Mostly Cloudy,160,2012-12-06 01:56:00
6:56 PM,45.0,42.1,90,30.23,10.0,Calm,Calm,-,0.00,Rain,Light Rain,0,2012-12-06 02:56:00
7:56 PM,44.1,42.1,93,30.24,10.0,Calm,Calm,-,0.00,,Mostly Cloudy,0,2012-12-06 03:56:00
8:56 PM,44.1,41.0,89,30.24,10.0,Calm,Calm,-,N/A,,Mostly Cloudy,0,2012-12-06 04:56:00
9:56 PM,43.0,41.0,93,30.25,10.0,Calm,Calm,-,N/A,,Overcast,0,2012-12-06 05:56:00
10:56 PM,42.1,39.9,92,30.25,10.0,Calm,Calm,-,N/A,,Scattered Clouds,0,2012-12-06 06:56:00
11:56 PM,39.9,39.9,100,30.23,10.0,SE,4.6,-,N/A,,Clear,130,2012-12-06 07:56:00